Regional Weather Roundup
Issued by NWS Newport/Morehead, NC

Current Version | Previous Version | Text Only | Print | Product List | Glossary On
Versions: 1 2 3 4 5 6 7 8 9 10 11 12 13 14 15 16 17 18 19 20 21 22 23 24 25 26 27 28 29 30 31 32 33 34 35 36 37 38 39 40 41 42 43 44 45 46 47 48 49 50
000 ASUS42 KMHX 280022 RWRMHX WEATHER ROUNDUP FOR EASTERN NORTH CAROLINA NATIONAL WEATHER SERVICE NEWPORT/MOREHEAD CITY NC 700 PM EST THU NOV 27 2014 NOTE: "FAIR" INDICATES FEW OR NO CLOUDS BELOW 12,000 FEET WITH NO SIGNIFICANT WEATHER AND/OR OBSTRUCTIONS TO VISIBILITY NCZ015>017-031-032-045>047-102-103-280100- NORTH COAST CITY SKY/WX TMP DP RH WIND PRES REMARKS EDENTON LGT RAIN 42 40 93 N8 30.14R ELIZABETH CITY CLOUDY 45 39 81 N9 30.13R KITTY HAWK CLEAR 43 40 88 NW8 30.08R MANTEO MOCLDY 43 39 86 NW12G18 30.11R $$ NCZ045>047-081-094-103-104-280100- CENTRAL COAST CITY SKY/WX TMP DP RH WIND PRES REMARKS FRISCO CLOUDY 46 41 82 NW14G23 30.08R SWANQUARTER N/A 41 N/A N/A NW6 30.09R $$ NCZ095-097-098-100-101-280100- SOUTHERN COAST CITY SKY/WX TMP DP RH WIND PRES REMARKS BEAUFORT PTCLDY 45 39 79 N12 30.13R CEDAR ISLAND N/A 46 N/A N/A NW18G25 30.15S JACKSONVILLE CLEAR 44 38 79 NW9 30.15R PINEY ISLAND PTCLDY 47 37 68 NW14G23 30.12R WILMINGTON CLEAR 44 38 79 NW7 30.17R $$ NCZ011>013-027>030-043-044-078>080-089-090>093-098-280100- COASTAL PLAIN CITY SKY/WX TMP DP RH WIND PRES REMARKS AHOSKIE CLOUDY 41 37 87 CALM 30.15R CLINTON CLEAR 39 38 96 CALM 30.18R ELIZABETHTOWN PTCLDY 42 38 86 CALM 30.19R GOLDSBORO CLOUDY 44 43 97 W1 30.15R GREENVILLE CLEAR 41 37 87 NW5 30.16R HAVELOCK PTCLDY 44 38 79 NW9 30.14R KENANSVILLE PTCLDY 38 37 96 CALM 30.18R KINSTON CLEAR 39 36 87 CALM 30.16R NEW BERN CLEAR 44 38 79 NW6 30.15R RICHLANDS CLEAR 43 36 75 CALM 30.17R ROCKY MOUNT CLEAR 42 35 76 NW8 30.16R WASHINGTON CLEAR 40 37 89 CALM 30.15R WHITEVILLE CLEAR 42 39 88 CALM 30.19R $$ AMZ130-135-150-152-154-156-158-170-250-252-270-ANZ085-086-088-633-658-670-280100- MARINE OBSERVATIONS STATION/POSITION TIME TEMP WIND PRES WAVE SWELL AIR SEA DIR/SP/G HT/PER HT/PER (UTC) (F) (DEG/KT/KT) (MB) (FT/S) (FT/S) CHESAPEAKE LIGHT 0000 44 340/ 20/ 23 1019.6 64 E VA BEACH 0000 49 64 340/ 23/ 29 1016.6 6/ 4 3/ 8 DUCK 0000 44 54 320/ 13/ 19 1018.2 2 E DUCK 0000 55 N/A 4/ 9 2/14 10 NE DUCK 0000 57 N/A 5/ 9 2/11 OREGON INLET 0000 44 56 320/ 11/ 15 1018.8 13E OREGON INLT 0000 60 N/A 5/ 8 2/11 HATTERAS CG 0000 47 59 320/ 25/ 29 1019.0 DIAMOND BUOY 0000 51 320/ 21/ 27 1017.1 6/ 5 2/ 9 17 S OCRACOKE NOT AVBL CAPE LOOKOUT 0000 47 330/ 18/ 21 1020.0 BEAUFORT LAB 0000 45 57 340/ 8/ 12 1019.4 30 SE NEW RIVER 0000 51 66 330/ 23/ 29 1019.9 7/ 6 2/14 5 SE WRIGHTSVLE 2300 47 59 320/ 16/ 19 1020.2 225 S CAPE HAT NOT AVBL 41 SE CHARLESTON 0000 56 72 310/ 21/ 27 1021.6 6/ 6 2/ 9 $$

USA.gov is the U.S. government's official web portal to all federal, state and local government web resources and services.